Location: Claremont
(33.9858°S, 18.4575°E)
Time: 07:36:31
(UTC+00:00)

Daily predictions for brighter satellites

Satellite Brightness Start Highest point End
(mag) Time Altitude Azimuth Time Altitude Azimuth Time Altitude Azimuth
Cosmos 1025 Rocket 3.3 18:16:26 10° S 18:20:45 51° E 18:25:02 10° NNE
Cosmos 2278 Rocket 4.4 18:16:19 10° NW 18:21:22 33° WSW 18:26:29 10° S
CSL-04 Rocket 3.7 18:15:59 10° SSE 18:21:27 89° ENE 18:26:47 10° NNW
ASTRO E2 3.7 18:18:57 10° NW 18:22:23 28° NNE 18:25:52 10° E
ATLAS CENTAUR R/B 3.0 18:20:18 10° SW 18:24:29 37° WNW 18:28:52 10° N
YAOGAN 1 3.3 18:22:11 10° S 18:26:31 59° WSW 18:30:47 10° NNW
CZ-4 R/B 3.1 18:22:58 10° S 18:26:53 39° WSW 18:30:42 10° NW
GPS 2-04 Rocket1 2.6 18:24:58 10° WSW 18:28:35 73° S 18:32:05 10° E
Iridium 4 Rocket 4.0 18:24:15 10° S 18:30:07 81° W 18:36:03 10° N
Cosmos 2369 Rocket 3.4 18:27:40 10° NNE 18:31:51 21° E 18:36:04 10° SE
ARGOS 4.3 18:34:48 10° SE 18:39:09 24° E 18:43:27 10° NNE
H-2A R/B 3.0 18:36:08 10° SE 18:40:52 29° E 18:45:28 10° NNE
Cosmos 1707 3.3 18:38:15 10° S 18:41:59 41° E 18:45:23 12° NNE
Cosmos 2315 Rocket 4.0 18:36:16 10° N 18:42:28 80° E 18:48:45 10° S
Cosmos 1709 Rocket 4.1 18:37:42 10° S 18:44:10 69° E 18:50:30 10° NNE
SL-8 R/B 3.7 18:39:51 10° NW 18:44:40 68° NE 18:49:30 10° ESE
Cosmos 1833 Rocket 3.1 18:41:16 10° SSW 18:46:52 64° WNW 18:52:24 10° N
FALCON 9 R/B 2.6 18:49:19 10° WNW 18:53:02 48° NNE 19:07:44 10° E
Cosmos 1943 Rocket 2.5 18:48:31 10° N 18:53:38 41° ENE 18:58:48 10° SE
Ariane Rocket 3.0 18:49:43 10° SSE 18:54:54 86° ENE 19:00:00 10° NNW
Hubble Space Telescope 1.5 18:52:18 10° WNW 18:56:10 37° N 18:58:40 19° NE
MONITOR-E 4.4 18:58:37 10° S 19:01:25 63° WSW 19:04:10 10° NNW
MOS 1 4.3 18:58:55 10° SSE 19:04:37 67° ENE 19:10:14 10° N
MOS 1 Rocket 3.5 19:01:22 12° NNE 19:06:15 79° ESE 19:11:15 10° S
CZ-2C R/B 3.4 19:04:57 10° N 19:10:18 54° W 19:15:50 10° SSW
Cosmos 1777 Rocket 4.2 19:05:51 10° SSW 19:11:09 75° WNW 19:15:35 14° N
Okean 1-7 Rocket 4.4 19:10:50 10° SSE 19:15:07 35° E 19:17:02 25° NE
Iridium 2 4.3 19:14:40 27° NE 19:16:09 39° E 19:19:47 10° SSE
Cosmos 1455 Rocket 3.5 19:13:45 22° NNE 19:16:15 43° E 19:20:31 10° SSE
Cosmos 1184 Rocket 4.4 19:13:15 10° NNW 19:16:22 37° W 19:19:32 10° S
Meteor 1-15 Rocket 4.4 19:11:07 10° N 19:17:02 84° W 19:23:04 10° S
ISS -3.6 19:19:43 10° NNW 19:23:01 48° NE 19:26:21 10° ESE
FREGAT/IRIS 4.4 19:20:45 10° SSW 19:23:17 29° WSW 19:25:46 10° NW
Genesis I 4.1 19:19:38 10° NW 19:23:18 49° WSW 19:27:03 10° SSE
Nadezhda 1 Rocket 4.3 19:20:47 20° NNE 19:24:44 48° E 19:30:42 10° SSE
Delta 168 4.1 19:23:16 10° NW 19:25:14 18° NNW 19:25:14 18° NNW
Cosmos 1544 Rocket 3.9 19:26:33 30° NE 19:28:13 45° E 19:32:27 10° SSE
USA 186 3.1 19:27:04 10° SSW 19:29:19 30° WSW 19:31:31 11° NW
SJ 16-02 3.0 19:27:20 10° SSE 19:30:30 19° ESE 19:31:24 18° E
Cosmos 2082 Rocket 3.4 19:27:54 10° SW 19:33:09 38° WNW 19:38:04 11° N
USA 129 4.5 19:36:24 14° SSE 19:36:24 14° SSE 19:36:59 10° SSE
Meteor 1-22 Rocket 4.5 19:31:19 22° NNE 19:35:13 58° E 19:41:05 10° SSE
Cosmos 1733 3.7 19:35:05 38° ENE 19:35:28 39° E 19:39:10 10° SSE
Cosmos 2263 4.2 19:33:01 15° N 19:37:44 59° ENE 19:43:20 10° SSE
Cosmos 1570 Rocket 4.1 19:38:14 28° NNE 19:40:50 54° ENE 19:46:02 10° SSE
DELTA 2 R/B (1) 3.9 19:36:19 10° W 19:41:57 68° SSW 19:47:35 10° ESE
Meteor 2-5 Rocket 3.9 19:36:08 10° S 19:42:08 65° E 19:44:53 32° NNE
SJ-6B 3.8 19:40:47 10° S 19:44:28 44° WSW 19:48:08 10° NNW
FALCON 9 R/B 4.3 19:22:35 10° WSW 19:44:39 37° NW 19:49:47 20° N
Cosmos 1892 Rocket 3.4 19:42:26 10° S 19:46:51 89° E 19:48:21 41° N
Resurs 1-3 3.5 19:43:44 10° SSE 19:48:12 76° ENE 19:49:52 38° N
deb Kosmos-1763 4.0 19:45:10 10° SSW 19:48:55 80° WNW 19:49:34 58° N
Cosmos 2074 Rocket 3.9 19:43:08 10° S 19:49:26 89° E 19:52:55 28° N
Atlas Centaur 2 4.3 19:43:30 10° NNW 19:46:52 19° N 19:46:52 19° N
Cosmos 1867 3.6 19:46:55 10° NNW 19:52:18 82° WSW 19:57:44 10° SSE
Cosmos 1763 Rocket 3.4 19:48:43 19° NNW 19:52:36 88° ENE 19:57:59 10° SSE
USA 267 3.8 19:49:54 10° ESE 19:55:47 34° NE 19:55:55 34° NE
Cosmos 990 Rocket 4.3 19:52:58 10° S 19:58:02 49° ESE 19:59:10 42° ENE
ASTRO E2 3.2 19:58:37 10° WNW 20:01:45 45° NW 20:01:45 45° NW
Cosmos 1953 4.4 20:05:14 17° ESE 20:05:14 17° ESE 20:06:50 10° SE
Cosmos 192 4.4 20:01:22 23° NNW 20:04:24 74° WSW 20:09:21 10° SSE
KORONAS-FOTON 3.8 20:03:34 10° S 20:07:31 78° W 20:07:47 73° NW
GPS 2-04 Rocket1 3.7 20:04:38 10° W 20:06:51 31° WNW 20:06:51 31° WNW
CZ-2C R/B 3.8 20:04:12 10° S 20:09:33 54° WSW 20:13:30 16° NW
Cosmos 1656 Rocket 3.6 20:11:46 43° N 20:13:41 75° ENE 20:19:25 10° SSE
Thor Agena Rocket 3.8 20:12:48 41° NNW 20:14:35 66° WNW 20:19:56 10° SSW
Cosmos 2369 Rocket 3.3 20:10:03 10° NW 20:15:29 44° WSW 20:20:59 10° S
Resurs 01 Rocket 1.8 20:13:49 10° S 20:18:17 68° WSW 20:19:24 47° NW
Mayak -1.0 20:18:40 57° ESE 20:18:40 57° ESE 20:22:32 10° S
Meteor 1-24 Rocket 3.9 20:13:36 10° S 20:19:45 83° W 20:21:38 47° N
H-2A R/B 3.9 20:15:24 10° S 20:20:09 31° WSW 20:24:49 10° NW
SeaSat 1 3.3 20:16:39 10° SE 20:20:04 34° ESE 20:20:04 34° ESE
Cosmos 1898 Rocket 3.4 20:17:10 10° SSW 20:22:27 90° WNW 20:23:13 66° NNE
Cosmos 1626 3.3 20:19:21 10° S 20:21:55 35° SE 20:21:55 35° SE
Cosmos 841 Rocket 3.4 20:21:59 51° NNW 20:23:19 86° WSW 20:28:36 10° SSE
Cosmos 2154 Rocket 4.0 20:17:09 10° S 20:23:29 82° W 20:25:35 45° N
Cosmos 1470 3.3 20:25:13 55° SSE 20:25:13 55° SSE 20:28:29 10° S
Cosmos 1818 3.6 20:19:33 10° SSW 20:24:58 71° WNW 20:25:48 60° N
Cosmos 2341 Rocket 4.0 20:24:18 10° S 20:30:33 64° E 20:31:34 56° NE
MetOp-B 4.0 20:26:28 10° SSE 20:31:54 76° ENE 20:32:25 69° NNE
Cosmos 1674 4.3 20:31:09 10° SSW 20:34:28 28° W 20:34:46 27° W
Cosmos 1242 Rocket 4.2 20:31:06 10° S 20:33:18 30° SSE 20:33:18 30° SSE
Cosmos 1602 Rocket 3.7 20:31:19 10° S 20:35:16 68° SSE 20:35:16 68° SSE
Cosmos 540 Rocket 3.5 20:35:40 62° NW 20:36:29 78° WSW 20:41:42 10° SSE
Hubble Space Telescope 3.4 20:33:41 10° WNW 20:33:59 11° WNW 20:33:59 11° WNW
Cosmos 1943 Rocket 4.4 20:33:10 10° WNW 20:37:29 23° WSW 20:41:49 10° S
CZ-3A R/B 3.6 20:29:50 10° WNW 20:39:03 30° NW 20:39:03 30° NW
Cosmos 1833 4.2 20:44:13 10° SSW 20:49:55 68° ESE 20:50:04 68° E
Landsat 7 4.3 20:46:21 10° SSE 20:50:12 53° SE 20:50:12 53° SE
Cosmos 2181 Rocket 4.0 20:50:41 61° NNW 20:51:56 85° W 20:58:29 10° S
NOSS 3-1 (C) 4.1 20:52:16 42° NNW 20:55:43 76° ENE 21:03:48 10° SE
Spot 2 Rocket 4.0 20:54:36 10° S 20:59:40 56° WSW 21:00:19 52° WNW
ISS -0.8 20:57:34 10° WSW 20:59:58 17° SSW 21:02:21 10° SSE
SL-8 Rocket 3.8 20:56:33 10° S 21:02:48 84° E 21:03:08 79° NE
USA 229 DEB 3.8 21:02:35 48° NNW 21:05:02 89° ENE 21:12:30 10° SSE
USA 229 3.8 21:02:44 49° NNW 21:05:07 88° ENE 21:12:35 10° SSE
SJ 16-02 2.9 21:05:11 10° SW 21:08:24 29° W 21:08:24 29° W
NOSS 3-1 (A) 4.1 21:11:03 60° NNE 21:12:14 66° ENE 21:20:15 10° SE
Lacrosse 4 Rocket 3.3 21:15:12 27° SE 21:15:12 27° SE 21:17:19 10° SSE
ATLAS 5 CENTAUR R/B 2.6 21:09:47 10° SSW 21:14:02 45° SSE 21:14:02 45° SSE
Cosmos 2298 Rocket 4.2 21:11:44 10° SSW 21:16:26 68° S 21:16:26 68° S
CZ-3 Stage 3 3.5 21:11:54 10° WNW 21:17:24 71° NNE 21:48:16 10° E
Terra 2.9 21:21:42 10° SSE 21:24:47 38° SSE 21:24:47 38° SSE
DELTA 2 R/B (1) 4.5 21:23:27 10° WSW 21:28:55 47° S 21:31:09 31° SE
SPOT 1/Viking Rocket 4.1 21:25:59 10° S 21:30:49 54° WSW 21:30:49 54° WSW
Timation 2 Rocket 4.0 21:28:08 10° SSW 21:34:24 77° SE 21:34:24 77° SE
SPOT 5 3.6 21:29:41 10° S 21:33:38 52° SSW 21:33:38 52° SSW
USA 267 3.8 21:32:25 10° SE 21:38:52 57° SW 21:43:09 22° WNW
Cosmos 2366 rocket 4.4 21:41:12 10° SSW 21:47:20 53° W 21:47:20 53° W
ERS-1 Rocket 4.1 21:46:20 10° S 21:50:45 38° WSW 21:50:45 38° WSW
SeaSat 1 4.4 21:54:41 10° S 21:58:33 23° SW 21:59:49 21° WSW
Cosmos 1607 4.1 22:02:35 10° SSW 22:08:04 68° SSW 22:08:04 68° SSW
Cosmos 1697 Rocket 3.7 22:32:37 38° SE 22:32:37 38° SE 22:36:18 10° SSE
Cosmos 2297 Rocket 3.0 22:26:52 10° S 22:31:33 46° SE 22:31:33 46° SE
Cosmos 2227 Rocket 3.0 22:32:08 10° S 22:36:51 47° SE 22:36:51 47° SE
Cosmos 1656 4.3 22:39:22 53° SSW 22:39:22 53° SSW 22:43:55 10° SSE
Lacrosse 4 Rocket 4.4 22:51:27 11° WSW 22:51:59 11° SW 22:53:17 10° SW
Resurs 1-4 Rocket 3.5 22:55:33 30° ESE 22:55:33 30° ESE 22:59:53 10° S
Cosmos 2219 4.2 22:55:06 10° SSW 22:58:56 41° SW 22:58:56 41° SW
Terra 4.4 23:02:13 10° SW 23:03:37 11° WSW 23:03:40 11° WSW
CZ-4B R/B 4.4 23:08:51 45° SSE 23:08:51 45° SSE 23:12:32 10° S
Cosmos 1605 Rocket 4.3 23:10:39 10° SSW 23:15:56 59° SW 23:15:56 59° SW
CZ-2D R/B 2.7 23:29:04 55° SSE 23:29:04 55° SSE 23:33:29 10° S
Atlas Centaur 2 4.3 23:33:11 17° E 23:33:11 17° E 23:34:27 10° E
Cosmos 2082 4.1 23:23:00 10° SSW 23:27:38 59° SSW 23:27:38 59° SSW
ATLAS 2AS CENTAUR R/B 3.9 23:42:16 24° ENE 23:42:16 24° ENE 23:46:35 10° ESE
ALOS 2 4.5 23:37:53 10° S 23:40:17 26° SSW 23:40:17 26° SSW
NPP 4.0 23:42:53 63° S 23:42:53 63° S 23:47:29 10° S
Cosmos 2221 4.3 23:43:45 29° SE 23:43:45 29° SE 23:46:16 10° SSE
SL-4 R/B 3.8 23:46:35 34° SE 23:46:35 34° SE 23:49:19 10° SE
BREEZE-M DEB (TANK) 4.2 23:47:52 45° S 23:47:52 45° S 23:54:04 10° SE
Cosmos 1980 Rocket 2.7 23:49:33 53° SW 23:49:33 53° SW 23:54:25 10° SSE
Cosmos 2263 Rocket 4.2 23:46:30 10° S 23:51:02 23° ESE 23:54:58 12° ENE
USA 234 3.2 23:52:35 70° W 23:52:35 70° W 23:58:39 10° SW
